Retour au catalogue

STARLINK-11591

ActifCommunicationsVLEO
NORAD 63116·PAYLOAD·🇺🇸 United States

Lancé Feb 27, 2025 depuis Cape Canaveral Space Force Station

Loading…

Prochains Passages (prochaines 24 heures)

TLE

FraisSource: CelesTrak SupGP

Époque: Sep 14, 2026, 22:44 UTC

1 63116C 25039N   26257.94770833 -.00048761  00000+0 -37872-3 0  2573
2 63116  43.0003 175.6710 0001512 265.4490 149.3706 15.70863075    18

Suivez STARLINK-11591 en temps réel avec AllMySat

Download on the App Store